Flag for U.S.A. Weather past 2 weeks in Warminster Township, Pennsylvania, U.S.A.

Now
39 °F

Partly sunny.


Feels Like: 39 °F
Forecast: 36 / 55 °F
Wind: No wind

Location: Doylestown Airport


UV Index: 0 (Low)

Visibility: 10 mi


Pressure: 30.52 "Hg

Humidity: 67%

Dew point: 29 °F

Location of Warminster TownshipLocation

Historic Weather in Warminster Township

°F

Warminster Township temperature yesterday

Maximum temperature yesterday: 48 °F (at 2:54 PM)
Minimum temperature yesterday: 31 °F (at 5:54 AM)
Average temperature yesterday: 39 °F

Past Weeks' High & Low Weather Summary

 TemperatureHumidityPressure
High78 °F (Apr 13, 2:54 PM)100% (Apr 3, 11:54 PM)30.71 "Hg (Apr 3, 11:54 PM)
Low27 °F (Apr 16, 5:54 AM)22% (Apr 3, 4:54 PM)29.45 "Hg (Apr 8, 12:54 PM)
Average50 °F65%30.03 "Hg
* Reported Apr 3 8:54 AM — Apr 18 8:54 AM, Warminster Township, Weather by CustomWeather, © 2014

Note: Actual official high and low records may vary slightly from our data, if they occured in-between our weather recording intervals... More about our weather records

Advertising

Historic Weather Conditions — Data for Previous 24 hours

 ConditionsComfort  
Time TempWeatherWind HumidityBarometerVisibility
8:54 AM
Apr 18
37 °FOvercast.3 mph76%30.53 "Hg10 mi
7:54 AM36 °FOvercast.3 mph75%30.54 "Hg10 mi
6:54 AM35 °FOvercast.3 mph78%30.53 "Hg10 mi
5:54 AM35 °FOvercast.No wind78%30.51 "Hg10 mi
4:54 AM35 °FOvercast.No wind78%30.51 "Hg10 mi
3:54 AM35 °FOvercast.5 mph78%30.51 "Hg10 mi
2:54 AM36 °FOvercast.No wind75%30.57 "Hg10 mi
1:54 AM36 °FOvercast.No wind82%30.59 "Hg10 mi
12:54 AM35 °FPassing clouds.No wind85%30.61 "Hg10 mi
11:54 PM
Apr 17
36 °FOvercast.No wind79%30.60 "Hg10 mi
10:54 PM35 °FClear.No wind78%30.61 "Hg10 mi
9:54 PM36 °FClear.No wind75%30.62 "Hg10 mi
8:54 PM38 °FClear.No wind70%30.63 "Hg10 mi
7:54 PM40 °FSunny.No wind63%30.63 "Hg10 mi
6:54 PM43 °FSunny.6 mph56%30.63 "Hg10 mi
5:54 PM45 °FSunny.N/A53%30.62 "Hg10 mi
4:54 PM46 °FSunny.N/A51%30.63 "Hg10 mi
3:54 PM47 °FScattered clouds.5 mph52%30.64 "Hg10 mi
2:54 PM48 °FSunny.7 mph48%30.66 "Hg10 mi
1:54 PM47 °FSunny.5 mph50%30.67 "Hg10 mi
12:54 PM46 °FSunny.3 mph44%30.68 "Hg10 mi
11:54 AM45 °FSunny.6 mph40%30.70 "Hg10 mi
10:54 AM43 °FSunny.5 mph49%30.71 "Hg10 mi
Weather by CustomWeather, © 2014

See weather overview